Theta_e
326 325 327 325 326 325 325 325 326 326 326 326 324 323 325 325 324 324 324 323 325 325 325 325 325 326 327 326 326 328 328 328 327 327 328 328 326 325 326 326 326 326 326
326 325 327 325 327 326 326 325 325 325 326 326 325 324 324 324 324 325 325 325 325 324 322 323 324 327 327 326 327 327 327 328 327 327 327 326 325 325 326 325 326 326 327
326 326 327 326 326 326 325 326 326 325 325 325 326 325 324 324 324 324 324 324 324 321 324 326 326 327 327 327 328 328 328 328 328 325 328 327 326 325 325 326 326 327 327
325 325 327 325 325 327 326 327 327 325 324 325 325 326 325 324 324 324 324 322 324 326 326 327 326 327 328 328 327 327 328 328 327 327 327 326 326 325 326 326 327 327 318
324 325 327 326 326 326 324 325 326 327 324 324 325 325 325 325 324 325 323 323 326 325 325 327 327 327 328 327 327 328 328 327 327 327 326 326 325 325 327 326 325 324 314
323 325 326 326 325 326 325 325 325 327 327 324 325 325 325 325 325 327 327 325 326 326 325 326 327 326 327 327 328 328 327 327 326 326 326 326 325 325 326 325 326 319 318
323 324 324 326 325 326 325 324 323 326 327 326 326 326 326 327 325 325 326 325 325 326 326 326 326 326 327 326 327 327 327 327 326 326 326 325 326 326 325 325 326 314 316
324 323 322 326 327 326 322 321 319 326 326 327 327 326 325 326 327 326 326 325 326 326 325 327 327 327 326 327 327 327 327 327 326 326 326 326 326 326 326 326 325 315 321
323 322 322 326 328 327 324 322 318 322 326 328 327 327 326 326 327 326 325 327 326 326 326 326 325 326 326 326 323 325 324 325 327 327 327 326 326 320 317 321 316 317 322
322 322 321 324 326 328 325 323 318 319 322 328 327 327 326 325 326 326 325 325 325 324 325 324 324 325 325 322 321 321 321 322 323 322 319 318 316 318 320 321 321 324 321
322 322 320 319 325 326 327 323 320 317 318 322 328 327 326 325 326 326 325 324 323 323 324 323 324 322 323 322 322 321 320 320 320 321 321 321 321 321 321 320 317 317 317
322 322 321 319 321 327 326 324 322 317 316 318 320 328 328 326 325 326 325 325 324 323 323 325 325 323 323 322 323 324 323 322 321 322 323 322 316 314 314 316 317 318 319
323 323 322 319 319 325 325 325 324 322 316 315 318 320 326 328 328 326 326 325 325 325 324 326 324 322 322 323 324 323 322 321 320 320 315 313 313 315 315 317 318 319 319
322 323 323 320 319 320 326 326 325 325 323 314 316 320 320 327 328 326 325 325 325 325 326 326 325 322 321 321 321 321 320 319 318 315 313 313 314 314 315 317 319 319 318
321 322 323 321 318 318 321 323 326 326 323 318 313 314 314 319 325 327 325 325 327 327 327 326 325 320 319 318 318 318 317 316 313 313 314 314 313 313 315 317 318 318 316
321 321 322 322 319 319 317 317 317 324 323 321 318 313 311 313 314 319 324 326 326 327 327 327 324 320 317 316 316 315 315 315 315 315 316 315 312 313 315 317 318 317 314
322 321 321 322 319 319 319 318 317 318 321 320 319 317 318 314 312 313 315 316 317 318 318 318 319 317 316 316 315 314 315 315 316 316 315 313 311 311 313 316 317 316 314
324 323 321 320 319 319 319 319 321 320 318 318 318 318 316 319 321 317 314 314 316 316 316 320 317 316 316 315 314 314 314 315 315 315 315 312 311 311 314 315 317 317 315
325 324 322 321 319 317 319 320 320 322 322 322 316 317 317 316 320 323 323 320 314 312 314 314 313 313 312 313 313 313 313 313 313 314 315 312 311 311 313 315 316 316 313
326 325 324 322 321 319 318 320 321 321 322 322 320 316 314 316 316 319 320 320 319 316 311 310 311 312 312 312 311 311 311 312 312 311 311 310 310 311 312 314 315 315 310
326 326 324 323 323 321 318 318 320 320 321 321 320 319 318 315 313 313 314 315 316 314 312 310 309 309 310 311 311 311 312 312 311 311 310 309 309 311 312 314 315 311 307
327 326 326 324 323 323 321 318 318 319 319 320 320 321 320 319 319 319 316 312 311 311 311 310 310 309 308 309 310 311 311 313 314 314 314 312 311 310 312 314 315 312 307
327 327 326 325 324 323 323 322 320 319 319 319 320 320 321 321 320 320 320 319 317 312 310 310 311 311 311 313 314 314 313 310 310 312 315 315 315 314 313 314 314 310 308
328 327 327 326 325 324 324 324 323 322 321 321 321 321 322 322 322 322 321 321 321 321 317 312 311 310 311 313 315 317 318 318 319 319 314 311 314 316 314 314 313 308 306
327 327 327 326 326 326 324 324 324 324 324 323 323 322 322 323 323 323 323 322 322 322 322 321 318 316 315 314 313 314 315 316 317 317 318 317 313 314 314 314 313 309 302
327 328 328 328 327 327 326 326 327 326 325 325 324 324 324 324 324 325 325 324 324 324 323 323 323 323 323 322 321 321 320 319 318 317 316 316 315 312 313 313 311 306 301
Wind_Speed
7 5 4 2 3 2 4 5 4 5 5 8 11 11 10 11 11 12 13 13 11 10 9 8 11 10 10 14 9 14 12 9 10 14 26 44 43 42 39 35 30 25 20
8 6 4 3 4 5 6 5 5 6 7 8 11 12 11 11 11 11 11 11 11 11 11 10 9 9 13 11 9 10 7 10 11 22 38 39 40 40 38 32 26 20 15
9 7 6 5 7 7 7 6 6 6 7 8 10 11 12 11 11 10 9 9 12 12 11 12 13 10 11 9 9 9 9 9 15 24 29 35 38 37 34 28 23 19 16
10 9 8 7 8 9 9 7 6 7 8 8 10 12 12 12 11 9 12 14 13 12 12 11 11 9 9 11 10 11 11 12 17 26 28 36 37 35 33 30 23 14 22
11 11 10 9 8 9 10 10 7 8 9 9 10 12 12 11 11 10 12 12 11 12 13 13 13 12 12 10 11 12 14 18 22 27 32 33 36 34 31 24 20 20 20
13 12 11 10 9 8 7 7 8 7 9 9 10 12 13 13 11 11 13 11 7 7 12 16 16 15 13 12 11 10 13 15 24 30 32 35 37 33 27 19 17 20 19
15 13 12 11 11 9 7 6 6 6 9 7 8 11 13 13 14 14 12 11 8 11 14 17 15 15 14 10 14 16 18 20 17 27 29 30 34 29 23 20 16 17 15
18 15 13 14 13 11 9 8 7 9 10 6 7 10 12 14 15 14 10 9 12 13 13 16 18 21 16 22 24 21 24 24 24 21 22 29 26 21 16 17 20 16 16
21 18 15 16 15 14 11 9 8 8 8 7 6 8 17 16 16 15 13 15 15 16 20 22 19 21 27 24 23 19 24 24 23 22 22 22 21 20 20 21 19 18 15
23 21 17 18 17 15 13 10 10 10 9 9 12 15 18 16 18 16 15 15 23 22 23 23 20 21 22 20 17 18 22 23 24 25 22 23 22 20 18 16 14 13 12
23 22 19 17 18 15 15 12 10 11 10 11 12 15 16 16 17 19 15 17 21 22 18 21 22 18 14 17 19 18 20 23 23 22 21 20 20 17 15 14 14 12 11
25 24 22 19 19 19 17 15 12 11 11 11 12 14 15 15 18 21 22 16 15 17 20 19 17 17 18 19 18 19 18 18 18 19 19 17 17 16 16 14 12 10 8
27 25 24 21 19 20 20 19 16 13 11 12 11 12 13 14 14 17 20 20 17 17 21 17 16 17 18 18 18 17 16 14 14 14 14 15 16 14 12 11 10 9 6
29 27 26 25 22 22 21 20 19 17 14 14 14 12 13 14 16 17 20 22 21 20 19 16 15 16 16 16 15 14 13 12 11 12 13 12 10 10 10 12 10 7 5
31 29 28 27 25 23 24 23 22 19 17 16 16 16 16 15 15 16 19 22 21 19 19 18 17 16 16 16 15 14 14 13 14 14 11 9 9 11 12 12 11 7 7
34 32 31 30 28 25 25 25 22 21 18 15 12 13 15 14 15 16 17 18 18 17 17 18 18 18 17 16 15 15 16 16 16 14 12 11 12 12 13 14 13 11 9
37 35 33 32 31 29 25 25 25 24 22 20 17 16 15 15 18 18 18 18 18 18 19 20 21 21 20 19 18 19 19 19 17 15 15 15 14 14 14 16 16 14 12
38 35 34 34 33 32 29 26 21 22 25 26 24 22 21 20 19 18 21 22 23 25 24 19 22 23 22 22 21 21 21 21 21 21 19 18 18 17 16 18 19 19 16
40 39 37 34 32 33 32 29 26 21 20 19 24 26 25 25 25 24 24 25 27 29 29 28 26 26 26 25 24 24 25 26 25 24 23 21 19 19 20 21 22 21 19
39 39 38 36 34 33 34 33 29 27 25 22 22 24 28 29 31 32 32 31 30 29 30 31 30 29 28 27 27 27 27 28 27 27 26 25 25 24 23 24 25 24 21
41 41 41 39 37 34 34 36 34 32 29 28 28 26 24 25 29 33 34 35 35 34 32 32 32 32 31 30 29 29 29 29 29 30 30 30 30 26 27 27 27 25 24
41 42 42 43 40 38 36 35 36 34 33 31 29 29 28 27 27 27 29 32 34 34 34 34 33 33 32 32 32 31 31 32 33 30 34 34 32 31 35 31 27 27 27
39 41 42 44 43 41 38 37 36 35 35 33 31 30 30 31 32 32 30 28 27 29 32 34 34 35 33 30 30 31 33 34 32 33 35 36 36 38 36 31 31 34 33
38 39 40 42 43 43 42 41 39 38 36 36 34 33 32 30 31 32 30 29 27 25 27 29 31 33 34 33 32 30 29 29 31 32 35 38 41 40 36 34 37 37 32
35 37 37 38 38 40 41 40 40 39 38 38 37 37 36 33 31 30 30 30 30 28 26 25 25 26 27 29 31 33 33 32 32 31 34 35 36 37 35 37 36 35 36
34 33 34 34 35 35 37 36 35 35 36 36 36 35 35 34 31 29 28 28 29 29 27 27 27 26 26 28 28 29 30 30 32 33 32 32 32 31 31 35 37 39 34
Wind_Direction
168 146 130 66 27 83 101 89 114 110 126 155 158 152 154 159 162 161 160 166 163 157 145 145 137 144 159 149 150 174 190 192 187 162 132 164 156 151 152 154 149 148 148
176 162 142 83 43 122 122 92 95 119 132 140 164 166 161 159 155 160 165 167 169 165 155 157 165 147 143 157 128 145 153 164 177 155 131 153 147 153 152 150 146 147 155
183 174 157 110 76 106 119 106 107 115 128 137 150 163 165 165 160 156 162 166 161 161 161 173 160 158 172 164 151 152 159 173 180 166 156 157 154 155 149 145 152 155 155
187 180 167 144 99 98 105 105 108 124 122 130 143 154 159 158 157 153 151 151 147 155 169 169 163 165 165 164 157 155 164 159 170 170 165 158 158 151 151 151 148 148 134
188 182 176 164 133 111 107 85 100 119 127 127 146 146 146 149 145 145 152 158 149 147 148 145 149 154 155 159 156 160 160 158 160 166 159 152 153 155 153 153 139 142 143
188 184 182 170 157 128 124 104 85 114 127 132 134 145 141 141 132 134 139 139 143 161 155 147 148 149 150 156 169 167 164 180 158 160 162 165 160 163 161 155 155 146 143
189 187 185 177 164 150 136 121 109 119 138 125 149 150 151 139 139 137 124 117 115 122 134 134 133 141 141 143 144 135 138 160 156 161 167 166 172 166 164 161 161 162 165
194 192 187 181 169 159 145 127 118 117 139 99 141 160 170 148 144 153 144 119 123 118 128 133 144 150 133 129 128 125 122 130 138 146 146 164 160 164 169 170 169 169 156
198 196 191 183 175 168 156 140 128 123 132 126 100 161 168 148 154 145 140 131 130 138 143 136 124 128 144 133 129 126 129 132 133 133 140 151 158 161 162 166 168 172 169
198 199 196 188 183 176 170 155 141 132 120 123 96 120 149 147 151 151 145 136 137 130 129 129 126 123 132 128 131 137 140 142 142 142 143 149 152 152 154 165 173 176 188
196 200 200 195 189 183 176 168 155 148 135 121 124 122 145 158 153 159 154 145 146 142 132 143 134 135 140 136 133 134 140 140 140 143 145 152 158 166 171 174 177 184 191
195 200 202 200 193 188 183 175 169 162 157 140 131 137 138 143 166 167 171 162 160 152 151 143 138 141 141 141 139 141 147 155 155 154 153 157 163 167 171 173 176 181 188
197 199 204 201 200 194 191 187 182 176 176 168 154 146 149 154 149 160 185 187 181 175 166 159 154 152 151 153 155 156 154 152 154 162 165 166 167 168 172 175 176 184 204
196 199 203 204 201 198 198 199 197 192 186 185 176 169 162 155 158 160 160 161 168 177 175 177 176 170 170 173 178 180 179 180 178 179 177 176 178 182 183 185 190 195 203
196 198 202 204 204 203 203 204 207 207 202 192 191 187 182 176 168 166 168 167 169 175 182 188 189 186 185 188 192 196 197 188 186 190 191 199 206 205 206 205 204 206 213
197 198 202 203 203 206 206 207 209 208 204 200 199 199 193 189 187 181 177 182 189 194 197 202 204 204 203 203 206 207 205 201 200 201 208 222 228 225 224 219 217 217 221
204 200 200 204 205 205 206 206 207 204 204 204 199 196 199 195 196 195 197 198 199 204 208 211 213 214 214 216 218 217 216 215 215 221 227 230 232 235 239 227 225 225 228
207 208 205 202 205 207 208 207 203 204 205 205 202 201 200 197 201 206 208 210 212 214 215 218 222 224 226 228 229 228 227 228 228 232 234 237 239 241 239 234 232 233 234
206 208 209 208 207 208 209 210 210 208 208 210 212 207 205 205 205 209 214 221 224 224 224 226 227 229 230 233 234 235 236 238 238 240 243 246 247 247 246 242 241 235 228
208 211 209 210 210 210 212 213 213 215 217 214 220 217 217 212 214 216 219 221 225 228 231 233 234 235 237 236 237 238 241 242 244 246 248 251 251 247 246 247 245 234 220
208 210 211 213 212 212 212 214 216 217 220 222 226 226 229 225 227 228 230 231 233 235 235 236 236 238 237 239 240 242 243 245 244 246 249 251 253 251 245 242 237 222 211
210 212 211 214 215 214 215 217 219 220 222 225 228 232 233 232 234 235 238 242 242 244 245 244 242 242 243 243 244 246 248 250 249 247 255 252 252 245 245 243 235 222 216
214 214 214 214 218 219 219 220 220 222 225 226 226 230 234 236 236 240 245 249 249 247 246 247 246 245 245 245 246 247 248 250 254 254 256 253 250 249 246 238 232 223 219
216 216 216 217 219 220 221 221 224 226 227 229 229 231 234 234 238 242 246 249 252 252 249 248 248 248 249 250 251 252 253 254 253 254 254 253 251 251 245 232 226 221 218
216 218 217 219 222 224 225 225 227 230 231 233 235 235 236 238 239 240 243 247 250 250 249 248 247 247 248 250 252 253 256 257 259 261 259 257 254 251 245 230 225 221 210
217 218 217 219 222 226 228 228 228 233 235 237 237 238 240 242 239 237 238 241 244 247 251 252 251 250 249 248 250 252 254 255 256 258 260 258 254 246 236 228 221 213 193